Peachtree City, GA

12:31 AM EDT on March 27, 2017 (GMT -0400)
Peachtree City-Falcon

Weather History for KFFC - June, 2013

Change the Weather History Date:

Tuesday, June 25, 2013

  Actual Average Record
Temperature  
Mean Temperature 78 °F 78 °F  
Max Temperature 89 °F 89 °F 101 °F (2016)
Min Temperature 67 °F 66 °F 57 °F (2001)
Degree Days  
Heating Degree Days 0 0  
Month to date heating degree days 0 0  
Since 1 June heating degree days 0 0  
Since 1 July heating degree days 242 2950  
Cooling Degree Days 13 13  
Month to date cooling degree days 287 262  
Year to date cooling degree days 433 452  
Since 1 June cooling degree days 287 262  
Growing Degree Days 26 (Base 50)    
Moisture  
Dew Point 70 °F    
Average Humidity 78    
Maximum Humidity 100    
Minimum Humidity 55    
Precipitation  
Precipitation T in 0.11 in 1.57 in (1999)
Month to date precipitation 5.04 2.98  
Year to date precipitation 13.81 24.50  
Snow  
Snow 0.00 in - - ()
Month to date snowfall 0.0  
Since 1 June snowfall 0.0  
Since 1 July snowfall 0.0  
Snow Depth 0.00 in    
Sea Level Pressure  
Sea Level Pressure 30.12 in    
Wind  
Wind Speed 1 mph (West)    
Max Wind Speed 9 mph    
Max Gust Speed 13 mph    
Visibility 7 miles    
Events Thunderstorm    
T = Trace of Precipitation, MM = Missing Value Source: NWS Daily Summary

Daily Weather History Graph

Daily Weather History Graph

Search for Another Location

Airport or City:

Trip Planner

Search our weather history database for the weather conditions in past years. The results will help you decide how hot, cold, wet, or windy it might be!

Date:

Astronomy

Jun. 25, 2013 Rise Set
Actual Time 6:30 AM EDT 8:51 PM EDT
Civil Twilight 6:01 AM EDT 9:20 PM EDT
Nautical Twilight 5:25 AM EDT 9:56 PM EDT
Astronomical Twilight 4:47 AM EDT 10:34 PM EDT
Moon 10:46 PM EDT (6/25) 9:01 AM EDT (6/25)
Length of Visible Light 15h 19m
Length of Day
14h 21m
Waning Gibbous, 93% of the Moon is Illuminated
Jun 25
Waning Gibbous
Jun 30
Last Quarter
Jul 8
New
Jul 15
First Quarter
Jul 22
Full

Hourly Weather History & Observations

Time (EDT) Temp. Heat Index Dew Point Humidity Pressure Visibility Wind Dir Wind Speed Gust Speed Precip Events Conditions
12:53 AM 71.1 °F - 70.0 °F 96% 30.17 in 6.0 mi Calm Calm - N/A   Clear
1:53 AM 70.0 °F - 69.1 °F 97% 30.16 in 7.0 mi Calm Calm - N/A   Clear
2:53 AM 70.0 °F - 69.1 °F 97% 30.14 in 7.0 mi Calm Calm - N/A   Mostly Cloudy
3:53 AM 69.1 °F - 66.9 °F 93% 30.13 in 6.0 mi Calm Calm - N/A   Clear
4:53 AM 68.0 °F - 66.9 °F 96% 30.14 in 6.0 mi Calm Calm - N/A   Clear
5:53 AM 66.9 °F - 66.0 °F 97% 30.15 in 6.0 mi Calm Calm - N/A   Clear
6:53 AM 66.9 °F - 66.0 °F 97% 30.16 in 5.0 mi Calm Calm - N/A   Clear
7:53 AM 71.1 °F - 69.1 °F 93% 30.17 in 6.0 mi Calm Calm - N/A   Partly Cloudy
8:53 AM 75.0 °F - 69.1 °F 82% 30.17 in 8.0 mi Variable 4.6 mph - N/A   Clear
9:53 AM 78.1 °F - 69.1 °F 74% 30.17 in 8.0 mi Variable 3.5 mph - N/A   Clear
10:53 AM 80.1 °F 83.2 °F 70.0 °F 71% 30.18 in 7.0 mi NW 4.6 mph - N/A   Mostly Cloudy
11:53 AM 82.0 °F 85.9 °F 70.0 °F 67% 30.17 in 7.0 mi Calm Calm - N/A   Scattered Clouds
12:53 PM 84.9 °F 89.4 °F 70.0 °F 61% 30.15 in 7.0 mi Calm Calm - N/A   Mostly Cloudy
1:02 PM 84.2 °F 88.4 °F 69.8 °F 62% 30.17 in 7.0 mi Variable 3.5 mph - N/A   Mostly Cloudy
1:53 PM 86.0 °F 90.1 °F 69.1 °F 57% 30.13 in 7.0 mi Variable 3.5 mph - N/A   Scattered Clouds
2:53 PM 86.0 °F 90.7 °F 70.0 °F 59% 30.11 in 7.0 mi West 5.8 mph - N/A   Scattered Clouds
3:53 PM 87.1 °F 91.3 °F 69.1 °F 55% 30.09 in 7.0 mi Calm Calm - N/A   Partly Cloudy
4:53 PM 86.0 °F 90.7 °F 70.0 °F 59% 30.06 in 7.0 mi Calm Calm - N/A   Partly Cloudy
5:53 PM 86.0 °F 90.7 °F 70.0 °F 59% 30.06 in 7.0 mi Calm Calm - N/A   Scattered Clouds
6:53 PM 84.0 °F 88.4 °F 70.0 °F 63% 30.04 in 6.0 mi West 4.6 mph - 0.00 in   Haze
7:53 PM 80.1 °F 85.1 °F 75.0 °F 85% 30.06 in 6.0 mi Calm Calm - N/A   Haze
8:53 PM 77.0 °F - 73.9 °F 90% 30.06 in 5.0 mi Calm Calm - N/A Thunderstorm Clear
9:10 PM 75.2 °F - 73.4 °F 94% 30.07 in 6.0 mi Calm Calm - N/A   Clear
9:53 PM 75.0 °F - 73.0 °F 94% 30.08 in 6.0 mi Calm Calm - N/A   Partly Cloudy
10:53 PM 75.0 °F - 70.0 °F 84% 30.08 in 8.0 mi Calm Calm - N/A   Scattered Clouds
11:53 PM 73.0 °F - 70.0 °F 90% 30.07 in 7.0 mi SE 3.5 mph - N/A   Scattered Clouds